[Date Prev][Date Next][Thread Prev][Thread Next] - [Date Index][Thread Index][Author Index]
2 Line ISS Keps 10-29
- Subject: [sarex] 2 Line ISS Keps 10-29
- From: "Dave Larsen PhD" <doc@xxxxxxxxxxx>
- Date: Mon, 29 Oct 2001 03:14:12 -0800
ISS
1 25544U 98067A 01302.02950611 .00067390 00000-0 85763-3 0 6635
2 25544 51.6379 135.5751 0008435 259.9301 237.9400 15.58681586167966
----
Via the sarex mailing list at AMSAT.ORG courtesy of AMSAT-NA.
To unsubscribe, send "unsubscribe sarex" to Majordomo@amsat.org
AMSAT Home